Lid_Strength_Index
12 13 14 13 13 15 15 16 16 14 13 13 13 14 12 11 13 12 11 11 11 11 9 10 10 10 10 9 8 7 6 5 5 5 6 6 7 8 8 7 8 9 7 7
13 15 12 12 13 13 15 16 15 14 13 13 14 14 12 12 12 11 10 10 10 10 11 11 11 11 10 9 8 7 6 6 6 5 7 8 8 10 10 10 10 9 9 8
14 13 12 12 14 14 15 15 16 14 14 14 15 16 14 13 12 11 11 10 9 10 10 11 12 12 10 10 9 8 6 7 6 7 10 11 11 11 12 12 11 11 9 10
14 12 12 13 14 13 16 13 14 14 15 18 15 19 15 14 13 12 11 11 11 10 11 11 12 12 11 10 9 7 6 7 7 9 9 9 9 10 11 12 13 13 11 11
14 13 13 14 13 12 14 13 13 14 16 17 17 17 16 15 14 12 10 10 10 11 12 12 12 12 11 10 9 8 7 7 8 9 8 8 8 9 11 13 14 14 14 14
14 12 12 12 12 12 12 13 14 16 16 19 17 17 18 16 14 13 11 10 11 12 12 13 13 13 12 11 9 8 7 7 9 9 9 8 9 13 13 14 15 15 15 16
14 13 12 11 13 12 13 14 18 20 20 19 18 18 16 14 13 12 11 11 12 12 12 13 14 13 13 11 10 9 8 8 9 9 9 9 11 11 12 13 14 16 16 17
16 17 13 12 12 13 14 14 18 23 22 20 18 19 16 13 12 12 12 12 13 12 13 13 14 13 13 12 10 9 9 9 10 10 10 10 11 11 12 13 14 15 15 16
16 16 14 13 12 11 15 16 14 16 24 21 18 17 14 14 13 12 12 13 13 12 13 13 14 13 13 12 11 9 9 9 10 10 11 12 12 12 13 14 15 15 16 17
14 17 15 14 12 13 14 13 17 18 22 24 19 18 17 14 13 12 13 12 12 12 13 14 14 14 13 12 11 9 9 10 11 11 12 12 12 12 13 15 16 16 17 17
14 15 17 15 15 15 15 16 16 16 18 21 22 16 15 13 13 13 12 12 12 13 13 13 14 14 13 12 11 10 10 12 12 12 12 13 13 13 14 15 16 17 17 18
13 15 19 17 15 15 16 16 15 18 20 19 19 16 14 14 14 13 13 13 13 13 13 14 14 14 14 13 13 12 11 12 12 12 13 13 14 14 15 16 17 17 18 18
11 14 20 17 17 16 16 15 14 15 17 19 19 17 14 15 14 13 13 13 12 13 14 14 15 15 14 14 13 13 12 12 13 13 13 14 15 15 15 16 17 17 18 18
8 13 15 17 16 15 17 16 14 14 16 17 16 14 13 15 14 13 12 13 12 13 14 15 16 15 15 14 14 14 13 13 13 13 13 14 15 15 15 16 17 17 18 18
10 15 13 13 14 15 15 15 15 15 14 16 14 14 12 12 12 10 9 12 13 13 14 14 15 15 15 15 15 14 13 14 14 14 14 14 15 15 16 16 17 17 18 18
10 15 13 15 12 14 14 13 14 14 13 13 13 14 10 9 12 12 10 11 12 13 13 13 14 15 15 15 15 14 14 14 14 14 15 15 16 16 16 17 17 18 18 18
12 14 15 17 14 14 17 14 13 12 13 13 15 12 10 10 10 10 9 10 12 12 12 12 13 13 14 14 14 15 14 14 15 15 15 15 16 16 16 17 18 18 19 19
13 14 14 17 15 21 13 12 10 12 11 10 10 10 9 10 10 10 10 11 11 12 12 12 12 13 14 14 15 15 15 15 15 15 15 16 16 16 17 17 18 18 18 19
9 12 15 17 17 15 13 14 14 13 13 10 10 9 9 9 12 11 11 11 11 12 12 12 12 12 13 14 15 15 16 16 16 16 16 16 16 17 17 17 18 17 18 18
10 10 14 15 19 20 14 14 14 11 15 11 10 10 10 11 15 11 13 14 14 14 14 14 14 14 14 15 16 16 17 17 17 16 16 16 16 17 18 17 17 17 17 18
14 14 16 16 17 15 14 16 12 16 14 16 12 10 10 12 11 13 14 14 14 14 15 15 16 16 16 16 17 17 17 17 16 17 17 17 17 17 17 16 17 17 18 18
14 15 16 15 17 19 14 14 13 14 14 15 14 12 12 13 13 14 14 14 15 15 15 16 17 17 18 17 17 18 18 17 17 17 17 17 17 17 17 18 18 17 18 18
15 13 14 14 14 12 12 12 12 13 14 13 14 13 13 13 13 13 13 14 15 16 16 18 18 18 18 17 17 17 17 17 18 18 18 17 16 16 16 17 17 17 17 18
10 10 12 12 11 11 10 10 12 12 12 12 14 13 13 13 14 14 15 14 14 17 17 18 17 17 17 18 16 15 15 15 15 15 16 16 16 16 16 16 16 16 17 17
12 11 12 13 12 12 11 11 9 10 12 13 14 14 14 14 14 14 15 17 16 17 17 17 16 17 17 16 16 15 14 13 14 15 15 15 15 15 15 15 15 15 15 15
11 12 13 14 11 11 11 12 11 11 11 12 13 14 14 14 14 15 16 16 17 17 18 17 18 19 20 19 20 19 17 13 13 15 15 14 14 14 15 15 16 14 13 12